Time,TemperatureF,DewpointF,PressureIn,WindDirection,WindDirectionDegrees,WindSpeedMPH,WindSpeedGustMPH,Humidity,HourlyPrecipIn,Conditions,Clouds,dailyrainin,SolarRadiationWatts/m^2,SoftwareType,DateUTC
2013-09-02 00:12:00,72.8,71.0,29.90,East,92,0.0,1.0,94,0.00,,,0.00,0,weatherlink.com 1.10,2013-09-02 04:12:00,
2013-09-02 00:27:00,72.8,71.0,29.90,East,84,0.0,0.0,94,0.00,,,0.00,0,weatherlink.com 1.10,2013-09-02 04:27:00,
2013-09-02 00:42:00,72.9,71.0,29.89,SW,230,0.0,2.0,94,0.00,,,0.00,0,weatherlink.com 1.10,2013-09-02 04:42:00,
2013-09-02 00:57:00,72.9,71.0,29.89,ENE,65,0.0,0.0,94,0.00,,,0.00,0,weatherlink.com 1.10,2013-09-02 04:57:00,
2013-09-02 01:12:00,72.9,71.0,29.89,ENE,65,0.0,3.0,94,0.00,,,0.00,0,weatherlink.com 1.10,2013-09-02 05:12:00,
2013-09-02 01:27:00,72.8,71.0,29.89,ENE,65,0.0,0.0,94,0.00,,,0.00,0,weatherlink.com 1.10,2013-09-02 05:27:00,
2013-09-02 01:42:00,72.8,71.0,29.89,ENE,65,0.0,1.0,94,0.00,,,0.00,0,weatherlink.com 1.10,2013-09-02 05:42:00,
2013-09-02 01:57:00,72.8,71.0,29.89,ENE,65,0.0,0.0,94,0.00,,,0.00,0,weatherlink.com 1.10,2013-09-02 05:57:00,
2013-09-02 02:12:00,72.8,71.0,29.88,ENE,65,0.0,0.0,94,0.00,,,0.00,0,weatherlink.com 1.10,2013-09-02 06:12:00,
2013-09-02 02:27:00,72.8,71.0,29.88,ENE,65,0.0,1.0,94,0.00,,,0.00,0,weatherlink.com 1.10,2013-09-02 06:27:00,
2013-09-02 02:42:00,72.8,71.0,29.89,ENE,65,0.0,0.0,94,0.00,,,0.00,0,weatherlink.com 1.10,2013-09-02 06:42:00,
2013-09-02 02:57:00,72.9,71.0,29.87,SE,138,0.0,0.0,94,0.00,,,0.00,0,weatherlink.com 1.10,2013-09-02 06:57:00,
2013-09-02 03:12:00,72.9,71.0,29.87,ESE,107,0.0,2.0,94,0.00,,,0.00,0,weatherlink.com 1.10,2013-09-02 07:12:00,
2013-09-02 03:27:00,72.9,71.0,29.87,ESE,107,0.0,0.0,95,0.00,,,0.00,0,weatherlink.com 1.10,2013-09-02 07:27:00,
2013-09-02 03:42:00,73.0,72.0,29.87,SW,215,0.0,0.0,95,0.00,,,0.00,0,weatherlink.com 1.10,2013-09-02 07:42:00,
2013-09-02 03:57:00,73.0,72.0,29.86,SE,132,0.0,1.0,95,0.00,,,0.00,0,weatherlink.com 1.10,2013-09-02 07:57:00,
2013-09-02 04:12:00,73.0,72.0,29.86,SSE,168,0.0,1.0,95,0.00,,,0.00,0,weatherlink.com 1.10,2013-09-02 08:12:00,
2013-09-02 04:27:00,73.0,72.0,29.85,SSE,168,0.0,0.0,95,0.00,,,0.00,0,weatherlink.com 1.10,2013-09-02 08:27:00,
2013-09-02 04:42:00,73.0,72.0,29.86,SSE,168,0.0,0.0,95,0.00,,,0.00,0,weatherlink.com 1.10,2013-09-02 08:42:00,
2013-09-02 04:57:00,73.1,72.0,29.86,SSE,168,0.0,0.0,95,0.00,,,0.00,0,weatherlink.com 1.10,2013-09-02 08:57:00,
2013-09-02 05:12:00,73.0,72.0,29.86,SSE,167,0.0,0.0,95,0.00,,,0.00,0,weatherlink.com 1.10,2013-09-02 09:12:00,
2013-09-02 05:27:00,73.0,72.0,29.86,SSE,168,0.0,0.0,95,0.00,,,0.00,0,weatherlink.com 1.10,2013-09-02 09:27:00,
2013-09-02 05:42:00,73.1,72.0,29.86,SSE,168,0.0,0.0,95,0.00,,,0.00,0,weatherlink.com 1.10,2013-09-02 09:42:00,
2013-09-02 05:57:00,73.1,72.0,29.86,SSE,168,0.0,0.0,95,0.00,,,0.00,0,weatherlink.com 1.10,2013-09-02 09:57:00,
2013-09-02 06:12:00,73.1,72.0,29.86,ESE,110,0.0,4.0,95,0.00,,,0.00,0,weatherlink.com 1.10,2013-09-02 10:12:00,
2013-09-02 06:27:00,73.0,72.0,29.87,East,82,0.0,4.0,95,0.00,,,0.00,0,weatherlink.com 1.10,2013-09-02 10:27:00,
2013-09-02 06:42:00,72.8,71.0,29.87,SE,136,0.0,2.0,95,0.00,,,0.00,5,weatherlink.com 1.10,2013-09-02 10:42:00,
2013-09-02 06:57:00,72.6,71.0,29.86,SE,136,0.0,0.0,95,0.00,,,0.00,7,weatherlink.com 1.10,2013-09-02 10:57:00,
2013-09-02 07:12:00,72.6,71.0,29.86,SE,136,0.0,0.0,95,0.00,,,0.00,7,weatherlink.com 1.10,2013-09-02 11:12:00,
2013-09-02 07:27:00,72.5,71.0,29.87,SE,136,0.0,0.0,95,0.00,,,0.00,18,weatherlink.com 1.10,2013-09-02 11:27:00,
2013-09-02 07:42:00,72.6,71.0,29.87,SE,136,0.0,0.0,95,0.00,,,0.00,23,weatherlink.com 1.10,2013-09-02 11:42:00,
2013-09-02 07:57:00,72.7,71.0,29.87,ENE,69,0.0,0.0,95,0.00,,,0.00,30,weatherlink.com 1.10,2013-09-02 11:57:00,
2013-09-02 08:12:00,72.8,71.0,29.87,ESE,119,0.0,1.0,95,0.00,,,0.00,35,weatherlink.com 1.10,2013-09-02 12:12:00,
2013-09-02 08:27:00,72.8,71.0,29.87,ESE,119,0.0,2.0,95,0.00,,,0.00,46,weatherlink.com 1.10,2013-09-02 12:27:00,
2013-09-02 08:42:00,73.2,72.0,29.87,ESE,116,0.0,3.0,95,0.00,,,0.00,91,weatherlink.com 1.10,2013-09-02 12:42:00,
2013-09-02 08:57:00,73.7,72.0,29.87,ESE,115,0.0,1.0,95,0.00,,,0.00,102,weatherlink.com 1.10,2013-09-02 12:57:00,
2013-09-02 09:12:00,74.0,73.0,29.88,ESE,115,0.0,0.0,95,0.00,,,0.00,56,weatherlink.com 1.10,2013-09-02 13:12:00,
2013-09-02 09:27:00,74.1,73.0,29.87,East,96,0.0,1.0,95,0.00,,,0.00,176,weatherlink.com 1.10,2013-09-02 13:27:00,
2013-09-02 09:42:00,74.6,73.0,29.87,East,96,0.0,0.0,96,0.00,,,0.00,221,weatherlink.com 1.10,2013-09-02 13:42:00,
2013-09-02 09:57:00,74.7,73.0,29.87,East,96,0.0,1.0,95,0.00,,,0.00,40,weatherlink.com 1.10,2013-09-02 13:57:00,
2013-09-02 10:12:00,74.4,73.0,29.87,East,96,0.0,1.0,95,0.00,,,0.00,23,weatherlink.com 1.10,2013-09-02 14:12:00,
2013-09-02 10:27:00,73.0,71.0,29.88,NNE,15,0.0,2.0,94,0.00,,,0.00,95,weatherlink.com 1.10,2013-09-02 14:27:00,
2013-09-02 10:42:00,72.4,70.0,29.88,NW,319,0.0,0.0,93,0.00,,,0.00,241,weatherlink.com 1.10,2013-09-02 14:42:00,
2013-09-02 10:57:00,73.1,71.0,29.87,ESE,115,0.0,0.0,93,0.00,,,0.00,195,weatherlink.com 1.10,2013-09-02 14:57:00,
2013-09-02 11:12:00,73.8,71.0,29.87,ESE,115,0.0,0.0,90,0.00,,,0.00,287,weatherlink.com 1.10,2013-09-02 15:12:00,
2013-09-02 11:28:00,75.5,72.0,29.87,ENE,62,0.0,2.0,88,0.00,,,0.00,679,weatherlink.com 1.10,2013-09-02 15:28:00,
2013-09-02 11:43:00,77.2,71.0,29.87,ENE,62,0.0,1.0,82,0.00,,,0.00,188,weatherlink.com 1.10,2013-09-02 15:43:00,
2013-09-02 11:58:00,78.4,73.0,29.87,ENE,62,0.0,0.0,82,0.00,,,0.00,260,weatherlink.com 1.10,2013-09-02 15:58:00,
2013-09-02 12:13:00,79.1,74.0,29.86,ENE,62,0.0,1.0,84,0.00,,,0.00,246,weatherlink.com 1.10,2013-09-02 16:13:00,
2013-09-02 12:28:00,79.2,74.0,29.85,ENE,62,0.0,1.0,85,0.00,,,0.00,311,weatherlink.com 1.10,2013-09-02 16:28:00,
2013-09-02 12:43:00,79.1,75.0,29.85,ENE,62,0.0,0.0,86,0.01,,,0.01,179,weatherlink.com 1.10,2013-09-02 16:43:00,
2013-09-02 12:58:00,79.3,76.0,29.85,SSE,149,0.0,2.0,88,0.01,,,0.01,156,weatherlink.com 1.10,2013-09-02 16:58:00,
2013-09-02 13:13:00,79.0,75.0,29.84,SSE,149,0.0,1.0,87,0.01,,,0.01,144,weatherlink.com 1.10,2013-09-02 17:13:00,
2013-09-02 13:28:00,79.3,76.0,29.84,SSE,150,0.0,1.0,88,0.01,,,0.01,229,weatherlink.com 1.10,2013-09-02 17:28:00,
2013-09-02 13:43:00,79.1,75.0,29.84,SSW,213,0.0,1.0,87,0.00,,,0.01,221,weatherlink.com 1.10,2013-09-02 17:43:00,
2013-09-02 13:58:00,79.2,75.0,29.84,WNW,284,0.0,2.0,87,0.00,,,0.01,105,weatherlink.com 1.10,2013-09-02 17:58:00,
2013-09-02 14:13:00,78.9,75.0,29.84,West,271,0.0,1.0,87,0.00,,,0.01,105,weatherlink.com 1.10,2013-09-02 18:13:00,
2013-09-02 14:28:00,78.6,75.0,29.83,WNW,292,0.0,0.0,87,0.00,,,0.01,88,weatherlink.com 1.10,2013-09-02 18:28:00,
2013-09-02 14:43:00,78.3,74.0,29.83,WNW,300,0.0,0.0,87,0.00,,,0.01,67,weatherlink.com 1.10,2013-09-02 18:43:00,
2013-09-02 14:58:00,78.0,74.0,29.83,ESE,108,0.0,2.0,88,0.00,,,0.01,91,weatherlink.com 1.10,2013-09-02 18:58:00,
2013-09-02 15:13:00,77.6,74.0,29.83,ESE,108,0.0,0.0,89,0.00,,,0.01,40,weatherlink.com 1.10,2013-09-02 19:13:00,
2013-09-02 15:28:00,77.3,74.0,29.83,SE,136,0.0,2.0,90,0.00,,,0.01,65,weatherlink.com 1.10,2013-09-02 19:28:00,
2013-09-02 15:43:00,76.9,74.0,29.82,SE,138,0.0,0.0,90,0.00,,,0.01,35,weatherlink.com 1.10,2013-09-02 19:43:00,
2013-09-02 15:58:00,76.6,74.0,29.82,SW,230,0.0,1.0,90,0.00,,,0.01,109,weatherlink.com 1.10,2013-09-02 19:58:00,
2013-09-02 16:13:00,76.0,73.0,29.82,SW,222,0.0,0.0,89,0.01,,,0.02,134,weatherlink.com 1.10,2013-09-02 20:13:00,
2013-09-02 16:28:00,76.0,73.0,29.82,SW,222,0.0,0.0,89,0.01,,,0.02,253,weatherlink.com 1.10,2013-09-02 20:28:00,
2013-09-02 16:43:00,76.3,73.0,29.82,South,177,0.0,1.0,90,0.01,,,0.02,76,weatherlink.com 1.10,2013-09-02 20:43:00,
2013-09-02 16:58:00,76.4,73.0,29.82,South,177,0.0,0.0,90,0.01,,,0.02,174,weatherlink.com 1.10,2013-09-02 20:58:00,
2013-09-02 17:13:00,76.2,73.0,29.82,South,177,0.0,0.0,89,0.00,,,0.02,105,weatherlink.com 1.10,2013-09-02 21:13:00,
2013-09-02 17:28:00,76.2,73.0,29.82,South,177,0.0,0.0,89,0.00,,,0.02,104,weatherlink.com 1.10,2013-09-02 21:28:00,
2013-09-02 17:43:00,76.5,74.0,29.81,South,177,0.0,1.0,90,0.00,,,0.02,63,weatherlink.com 1.10,2013-09-02 21:43:00,
2013-09-02 17:58:00,76.1,72.0,29.82,North,360,0.0,0.0,88,0.00,,,0.02,39,weatherlink.com 1.10,2013-09-02 21:58:00,
2013-09-02 18:13:00,75.8,72.0,29.82,North,360,0.0,1.0,88,0.00,,,0.02,19,weatherlink.com 1.10,2013-09-02 22:13:00,
2013-09-02 18:28:00,75.3,72.0,29.81,NNE,21,0.0,0.0,88,0.00,,,0.02,65,weatherlink.com 1.10,2013-09-02 22:28:00,
2013-09-02 18:43:00,75.0,71.0,29.80,NNE,21,0.0,0.0,88,0.00,,,0.02,19,weatherlink.com 1.10,2013-09-02 22:43:00,
2013-09-02 18:58:00,74.7,71.0,29.80,NNE,21,0.0,0.0,88,0.00,,,0.02,11,weatherlink.com 1.10,2013-09-02 22:58:00,
2013-09-02 19:13:00,74.4,71.0,29.80,NNE,21,0.0,0.0,88,0.00,,,0.02,5,weatherlink.com 1.10,2013-09-02 23:13:00,
2013-09-02 19:28:00,73.9,71.0,29.80,NNE,21,0.0,0.0,89,0.00,,,0.02,0,weatherlink.com 1.10,2013-09-02 23:28:00,
2013-09-02 19:43:00,73.5,71.0,29.79,NNE,21,0.0,0.0,90,0.00,,,0.02,0,weatherlink.com 1.10,2013-09-02 23:43:00,
2013-09-02 19:58:00,73.0,70.0,29.79,NNE,21,0.0,0.0,90,0.00,,,0.02,0,weatherlink.com 1.10,2013-09-02 23:58:00,
2013-09-02 20:13:00,72.5,70.0,29.80,NNE,21,0.0,0.0,91,0.00,,,0.02,0,weatherlink.com 1.10,2013-09-03 00:13:00,
2013-09-02 20:28:00,72.3,70.0,29.80,NNE,21,0.0,0.0,92,0.00,,,0.02,0,weatherlink.com 1.10,2013-09-03 00:28:00,
2013-09-02 20:43:00,72.0,69.0,29.80,NNE,21,0.0,0.0,91,0.00,,,0.02,0,weatherlink.com 1.10,2013-09-03 00:43:00,
2013-09-02 20:58:00,71.8,69.0,29.80,NNE,21,0.0,0.0,92,0.00,,,0.02,0,weatherlink.com 1.10,2013-09-03 00:58:00,
2013-09-02 21:13:00,71.6,69.0,29.80,NNE,21,0.0,0.0,92,0.00,,,0.02,0,weatherlink.com 1.10,2013-09-03 01:13:00,
2013-09-02 21:28:00,71.5,69.0,29.80,WSW,256,0.0,0.0,92,0.00,,,0.02,0,weatherlink.com 1.10,2013-09-03 01:28:00,
2013-09-02 21:43:00,71.3,69.0,29.81,WSW,256,0.0,0.0,93,0.00,,,0.02,0,weatherlink.com 1.10,2013-09-03 01:43:00,
2013-09-02 21:58:00,71.2,69.0,29.81,WSW,256,0.0,0.0,93,0.00,,,0.02,0,weatherlink.com 1.10,2013-09-03 01:58:00,
2013-09-02 22:13:00,71.1,69.0,29.82,WSW,256,0.0,0.0,93,0.00,,,0.02,0,weatherlink.com 1.10,2013-09-03 02:13:00,
2013-09-02 22:28:00,71.0,69.0,29.81,WSW,256,0.0,0.0,93,0.00,,,0.02,0,weatherlink.com 1.10,2013-09-03 02:28:00,
2013-09-02 22:43:00,71.0,69.0,29.81,WSW,256,0.0,0.0,93,0.00,,,0.02,0,weatherlink.com 1.10,2013-09-03 02:43:00,
2013-09-02 22:58:00,70.9,69.0,29.82,WSW,256,0.0,0.0,93,0.00,,,0.02,0,weatherlink.com 1.10,2013-09-03 02:58:00,
2013-09-02 23:13:00,70.8,69.0,29.82,WSW,256,0.0,0.0,93,0.00,,,0.02,0,weatherlink.com 1.10,2013-09-03 03:13:00,
2013-09-02 23:28:00,70.7,69.0,29.83,WSW,256,0.0,0.0,93,0.00,,,0.02,0,weatherlink.com 1.10,2013-09-03 03:28:00,
2013-09-02 23:43:00,70.7,69.0,29.84,WSW,256,0.0,0.0,94,0.00,,,0.02,0,weatherlink.com 1.10,2013-09-03 03:43:00,
2013-09-02 23:58:00,70.7,69.0,29.84,NW,310,0.0,0.0,94,0.00,,,0.02,0,weatherlink.com 1.10,2013-09-03 03:58:00,